▣
Archiv
Tageswerte
Alle gespeicherten Messwerte deiner Wetterstation.
Ausgewählter Tag27.11.2023
Messpunkte288
Max Temperatur2,8 °C
Min Temperatur0,1 °C
Ø Temperatur1,1 °C
Regen9,1 mm
Stärkste Böe15,8 km/h
Messwerte vom 27.11.2023
288 gespeicherte Messwerte
| Zeit | Temperatur | Feuchte | Druck | Wind | Böe | Richtung | Regen | UV | Helligkeit |
|---|---|---|---|---|---|---|---|---|---|
| 23:59 | 0,1 °C | 96 % | 986,8 hPa | 3,3 km/h | 6,8 km/h | 110° | 9,1 mm | – | – |
| 23:54 | 0,1 °C | 96 % | 986,8 hPa | 3,0 km/h | 7,4 km/h | 101° | 9,1 mm | – | – |
| 23:49 | 0,1 °C | 96 % | 986,8 hPa | 2,7 km/h | 4,2 km/h | 112° | 9,1 mm | – | – |
| 23:44 | 0,1 °C | 96 % | 985,8 hPa | 2,7 km/h | 3,9 km/h | 112° | 9,1 mm | – | – |
| 23:39 | 0,1 °C | 96 % | 985,8 hPa | 4,2 km/h | 8,5 km/h | 101° | 9,1 mm | – | – |
| 23:34 | 0,1 °C | 96 % | 985,8 hPa | 3,5 km/h | 7,9 km/h | 110° | 9,1 mm | – | – |
| 23:29 | 0,1 °C | 96 % | 986,8 hPa | 3,5 km/h | 8,5 km/h | 96° | 9,1 mm | – | – |
| 23:24 | 0,1 °C | 96 % | 986,8 hPa | 3,3 km/h | 5,6 km/h | 96° | 9,1 mm | – | – |
| 23:19 | 0,1 °C | 96 % | 986,8 hPa | 2,9 km/h | 6,8 km/h | 90° | 9,1 mm | – | – |
| 23:14 | 0,2 °C | 96 % | 986,8 hPa | 4,1 km/h | 7,9 km/h | 111° | 9,1 mm | – | – |
| 23:09 | 0,2 °C | 96 % | 986,8 hPa | 3,2 km/h | 5,6 km/h | 107° | 9,1 mm | – | – |
| 23:04 | 0,2 °C | 96 % | 986,8 hPa | 3,2 km/h | 6,8 km/h | 100° | 9,1 mm | – | – |
| 22:59 | 0,2 °C | 96 % | 986,8 hPa | 2,9 km/h | 5,6 km/h | 105° | 9,1 mm | – | – |
| 22:54 | 0,2 °C | 96 % | 986,8 hPa | 3,2 km/h | 6,4 km/h | 101° | 9,1 mm | – | – |
| 22:49 | 0,2 °C | 96 % | 986,8 hPa | 2,3 km/h | 5,3 km/h | 112° | 9,1 mm | – | – |
| 22:44 | 0,2 °C | 96 % | 986,8 hPa | 3,2 km/h | 6,4 km/h | 112° | 9,1 mm | – | – |
| 22:39 | 0,2 °C | 96 % | 986,8 hPa | 4,0 km/h | 7,9 km/h | 110° | 9,1 mm | – | – |
| 22:34 | 0,2 °C | 96 % | 986,8 hPa | 3,7 km/h | 7,4 km/h | 110° | 9,1 mm | – | – |
| 22:29 | 0,3 °C | 96 % | 986,8 hPa | 3,8 km/h | 8,5 km/h | 103° | 9,1 mm | – | – |
| 22:24 | 0,3 °C | 96 % | 986,8 hPa | 5,1 km/h | 15,8 km/h | 110° | 9,1 mm | – | – |
| 22:19 | 0,3 °C | 96 % | 986,8 hPa | 3,1 km/h | 6,4 km/h | 110° | 9,1 mm | – | – |
| 22:14 | 0,3 °C | 96 % | 987,8 hPa | 3,2 km/h | 7,4 km/h | 98° | 9,1 mm | – | – |
| 22:09 | 0,3 °C | 96 % | 987,8 hPa | 4,0 km/h | 12,2 km/h | 107° | 9,1 mm | – | – |
| 22:04 | 0,3 °C | 96 % | 987,8 hPa | 4,4 km/h | 7,1 km/h | 90° | 9,1 mm | – | – |
| 21:59 | 0,3 °C | 96 % | 987,8 hPa | 3,4 km/h | 7,9 km/h | 110° | 9,1 mm | – | – |
| 21:54 | 0,4 °C | 96 % | 987,8 hPa | 2,7 km/h | 4,7 km/h | 112° | 9,1 mm | – | – |
| 21:49 | 0,4 °C | 96 % | 987,8 hPa | 3,9 km/h | 8,5 km/h | 112° | 9,1 mm | – | – |
| 21:44 | 0,4 °C | 96 % | 987,8 hPa | 3,3 km/h | 6,8 km/h | 105° | 9,1 mm | – | – |
| 21:39 | 0,4 °C | 96 % | 987,8 hPa | 3,2 km/h | 5,6 km/h | 112° | 9,1 mm | – | – |
| 21:34 | 0,4 °C | 96 % | 987,8 hPa | 3,5 km/h | 8,5 km/h | 96° | 9,1 mm | – | – |
| 21:29 | 0,4 °C | 96 % | 987,8 hPa | 2,8 km/h | 6,8 km/h | 92° | 9,1 mm | – | – |
| 21:24 | 0,4 °C | 96 % | 987,8 hPa | 3,4 km/h | 9,3 km/h | 112° | 9,1 mm | – | – |
| 21:19 | 0,4 °C | 96 % | 987,8 hPa | 3,7 km/h | 8,9 km/h | 94° | 9,1 mm | – | – |
| 21:14 | 0,4 °C | 96 % | 988,8 hPa | 3,7 km/h | 8,5 km/h | 104° | 9,1 mm | – | – |
| 21:09 | 0,4 °C | 96 % | 988,8 hPa | 3,0 km/h | 5,6 km/h | 112° | 9,1 mm | – | – |
| 21:04 | 0,5 °C | 96 % | 988,8 hPa | 3,1 km/h | 5,6 km/h | 100° | 9,1 mm | – | – |
| 20:59 | 0,5 °C | 96 % | 988,8 hPa | 3,9 km/h | 8,5 km/h | 90° | 9,1 mm | – | – |
| 20:54 | 0,5 °C | 96 % | 988,8 hPa | 2,7 km/h | 4,7 km/h | 112° | 9,1 mm | – | – |
| 20:49 | 0,6 °C | 96 % | 988,8 hPa | 3,4 km/h | 6,8 km/h | 112° | 9,1 mm | – | – |
| 20:44 | 0,6 °C | 96 % | 988,8 hPa | 2,1 km/h | 4,7 km/h | 112° | 9,1 mm | – | – |
| 20:39 | 0,6 °C | 96 % | 988,8 hPa | 2,8 km/h | 4,2 km/h | 112° | 9,1 mm | – | – |
| 20:34 | 0,6 °C | 96 % | 988,8 hPa | 2,9 km/h | 4,7 km/h | 112° | 9,1 mm | – | – |
| 20:29 | 0,5 °C | 96 % | 988,8 hPa | 2,0 km/h | 6,1 km/h | 112° | 9,1 mm | – | – |
| 20:24 | 0,5 °C | 96 % | 988,8 hPa | 2,2 km/h | 7,4 km/h | 112° | 9,1 mm | – | – |
| 20:19 | 0,5 °C | 96 % | 988,8 hPa | 2,2 km/h | 3,9 km/h | 112° | 9,1 mm | – | – |
| 20:14 | 0,5 °C | 96 % | 989,8 hPa | 0,7 km/h | 3,5 km/h | 112° | 9,1 mm | – | – |
| 20:09 | 0,5 °C | 96 % | 989,8 hPa | 1,0 km/h | 2,7 km/h | 112° | 9,1 mm | – | – |
| 20:04 | 0,5 °C | 96 % | 989,8 hPa | 1,9 km/h | 3,5 km/h | 112° | 9,1 mm | – | – |
| 19:59 | 0,5 °C | 96 % | 989,8 hPa | 2,0 km/h | 4,2 km/h | 112° | 9,1 mm | – | – |
| 19:54 | 0,5 °C | 96 % | 989,8 hPa | 2,0 km/h | 3,9 km/h | 112° | 8,6 mm | – | – |
| 19:49 | 0,5 °C | 96 % | 989,8 hPa | 1,7 km/h | 3,2 km/h | 112° | 8,6 mm | – | – |
| 19:44 | 0,5 °C | 96 % | 989,8 hPa | 2,0 km/h | 2,7 km/h | 112° | 8,6 mm | – | – |
| 19:39 | 0,5 °C | 96 % | 989,8 hPa | 2,1 km/h | 3,9 km/h | 114° | 8,6 mm | – | – |
| 19:34 | 0,5 °C | 96 % | 989,8 hPa | 0,9 km/h | 4,2 km/h | 153° | 8,6 mm | – | – |
| 19:29 | 0,5 °C | 95 % | 989,8 hPa | 1,2 km/h | 3,2 km/h | 158° | 8,6 mm | – | – |
| 19:24 | 0,5 °C | 95 % | 989,8 hPa | 0,6 km/h | 2,7 km/h | 158° | 8,6 mm | – | – |
| 19:19 | 0,5 °C | 95 % | 989,8 hPa | 0,0 km/h | 0,0 km/h | 158° | 8,6 mm | – | – |
| 19:14 | 0,5 °C | 95 % | 990,9 hPa | 0,3 km/h | 2,4 km/h | 158° | 8,6 mm | – | – |
| 19:09 | 0,6 °C | 95 % | 990,9 hPa | 0,1 km/h | 2,1 km/h | 158° | 8,6 mm | – | – |
| 19:04 | 0,6 °C | 95 % | 990,9 hPa | 0,7 km/h | 2,4 km/h | 166° | 8,6 mm | – | – |
| 18:59 | 0,6 °C | 95 % | 990,9 hPa | 0,8 km/h | 2,7 km/h | 180° | 8,6 mm | – | – |
| 18:54 | 0,6 °C | 95 % | 990,9 hPa | 0,9 km/h | 2,1 km/h | 180° | 8,6 mm | – | – |
| 18:49 | 0,6 °C | 95 % | 990,9 hPa | 0,2 km/h | 1,8 km/h | 180° | 8,6 mm | – | – |
| 18:44 | 0,6 °C | 95 % | 990,9 hPa | 0,6 km/h | 2,7 km/h | 191° | 8,6 mm | – | – |
| 18:39 | 0,7 °C | 95 % | 990,9 hPa | 0,1 km/h | 1,8 km/h | 202° | 8,6 mm | – | – |
| 18:34 | 0,7 °C | 95 % | 990,9 hPa | 0,3 km/h | 2,4 km/h | 202° | 8,6 mm | – | – |
| 18:29 | 0,7 °C | 95 % | 990,9 hPa | 0,1 km/h | 2,1 km/h | 202° | 8,6 mm | – | – |
| 18:24 | 0,8 °C | 94 % | 990,9 hPa | 0,1 km/h | 1,8 km/h | 202° | 8,6 mm | – | – |
| 18:19 | 0,8 °C | 94 % | 990,9 hPa | 0,5 km/h | 2,1 km/h | 202° | 8,4 mm | – | – |
| 18:14 | 0,9 °C | 94 % | 990,9 hPa | 0,1 km/h | 1,8 km/h | 202° | 8,4 mm | – | – |
| 18:09 | 1,0 °C | 94 % | 990,9 hPa | 0,2 km/h | 1,8 km/h | 202° | 8,4 mm | – | – |
| 18:04 | 1,1 °C | 94 % | 990,9 hPa | 0,0 km/h | 0,0 km/h | 202° | 8,4 mm | – | – |
| 17:59 | 1,2 °C | 94 % | 990,9 hPa | 0,3 km/h | 2,4 km/h | 202° | 8,4 mm | – | – |
| 17:54 | 1,3 °C | 93 % | 990,9 hPa | 0,4 km/h | 2,7 km/h | 220° | 8,4 mm | – | – |
| 17:49 | 1,3 °C | 93 % | 990,9 hPa | 0,5 km/h | 3,2 km/h | 225° | 8,4 mm | – | – |
| 17:44 | 1,4 °C | 93 % | 991,9 hPa | 1,1 km/h | 2,4 km/h | 248° | 8,4 mm | – | – |
| 17:39 | 1,5 °C | 93 % | 991,9 hPa | 0,7 km/h | 2,7 km/h | 248° | 8,4 mm | – | – |
| 17:34 | 1,5 °C | 92 % | 991,9 hPa | 0,6 km/h | 2,7 km/h | 248° | 8,4 mm | – | – |
| 17:29 | 1,5 °C | 93 % | 991,9 hPa | 1,1 km/h | 3,2 km/h | 219° | 8,4 mm | – | – |
| 17:24 | 1,5 °C | 93 % | 991,9 hPa | 1,0 km/h | 2,7 km/h | 125° | 8,4 mm | – | – |
| 17:19 | 1,4 °C | 94 % | 991,9 hPa | 1,1 km/h | 3,2 km/h | 112° | 8,4 mm | – | – |
| 17:14 | 1,5 °C | 94 % | 991,9 hPa | 0,0 km/h | 0,0 km/h | 112° | 7,9 mm | – | – |
| 17:09 | 1,4 °C | 94 % | 991,9 hPa | 0,0 km/h | 0,0 km/h | 112° | 7,9 mm | – | – |
| 17:04 | 1,5 °C | 94 % | 991,9 hPa | 0,3 km/h | 2,1 km/h | 112° | 7,9 mm | – | – |
| 16:59 | 1,5 °C | 94 % | 992,9 hPa | 0,0 km/h | 0,0 km/h | 112° | 7,9 mm | – | – |
| 16:54 | 1,5 °C | 94 % | 992,9 hPa | 0,1 km/h | 1,8 km/h | 112° | 7,9 mm | – | – |
| 16:49 | 1,5 °C | 94 % | 992,9 hPa | 0,0 km/h | 0,0 km/h | 112° | 7,9 mm | – | – |
| 16:44 | 1,6 °C | 94 % | 992,9 hPa | 0,0 km/h | 0,0 km/h | 112° | 7,9 mm | – | – |
| 16:39 | 1,6 °C | 94 % | 992,9 hPa | 0,0 km/h | 0,0 km/h | 112° | 7,9 mm | – | – |
| 16:34 | 1,6 °C | 93 % | 992,9 hPa | 0,0 km/h | 0,0 km/h | 112° | 7,9 mm | – | – |
| 16:29 | 1,6 °C | 93 % | 992,9 hPa | 0,0 km/h | 0,0 km/h | 112° | 7,9 mm | – | – |
| 16:24 | 1,6 °C | 93 % | 992,9 hPa | 0,3 km/h | 2,1 km/h | 112° | 7,9 mm | – | – |
| 16:19 | 1,6 °C | 93 % | 992,9 hPa | 0,4 km/h | 2,7 km/h | 112° | 7,9 mm | – | – |
| 16:14 | 1,7 °C | 93 % | 992,9 hPa | 0,0 km/h | 0,0 km/h | 112° | 7,9 mm | – | – |
| 16:09 | 1,7 °C | 93 % | 992,9 hPa | 0,0 km/h | 0,0 km/h | 112° | 7,9 mm | – | – |
| 16:04 | 1,8 °C | 93 % | 992,9 hPa | 0,0 km/h | 0,0 km/h | 112° | 7,9 mm | – | – |
| 15:59 | 1,9 °C | 92 % | 992,9 hPa | 0,2 km/h | 2,4 km/h | 112° | 7,9 mm | – | – |
| 15:54 | 2,0 °C | 92 % | 992,9 hPa | 0,0 km/h | 0,0 km/h | 112° | 7,9 mm | – | – |
| 15:49 | 2,1 °C | 92 % | 992,9 hPa | 0,9 km/h | 2,4 km/h | 112° | 7,9 mm | – | – |
| 15:44 | 2,1 °C | 92 % | 993,9 hPa | 0,7 km/h | 2,4 km/h | 112° | 7,9 mm | – | – |
| 15:39 | 2,0 °C | 92 % | 993,9 hPa | 0,4 km/h | 3,5 km/h | 112° | 7,9 mm | – | – |
| 15:34 | 2,1 °C | 92 % | 993,9 hPa | 1,4 km/h | 6,1 km/h | 112° | 7,9 mm | – | – |
| 15:29 | 2,1 °C | 91 % | 993,9 hPa | 1,6 km/h | 3,9 km/h | 112° | 7,9 mm | – | – |
| 15:24 | 2,2 °C | 91 % | 993,9 hPa | 1,3 km/h | 3,9 km/h | 112° | 7,9 mm | – | – |
| 15:19 | 2,2 °C | 91 % | 993,9 hPa | 0,6 km/h | 2,1 km/h | 112° | 7,9 mm | – | – |
| 15:14 | 2,3 °C | 91 % | 993,9 hPa | 2,6 km/h | 4,7 km/h | 119° | 7,9 mm | – | – |
| 15:09 | 2,3 °C | 91 % | 993,9 hPa | 0,2 km/h | 2,7 km/h | 180° | 7,9 mm | – | – |
| 15:04 | 2,3 °C | 90 % | 993,9 hPa | 1,0 km/h | 3,9 km/h | 180° | 7,9 mm | – | – |
| 14:59 | 2,4 °C | 90 % | 993,9 hPa | 0,8 km/h | 3,2 km/h | 180° | 7,9 mm | – | – |
| 14:54 | 2,4 °C | 90 % | 993,9 hPa | 0,7 km/h | 2,7 km/h | 195° | 7,9 mm | – | – |
| 14:49 | 2,4 °C | 90 % | 993,9 hPa | 0,0 km/h | 0,0 km/h | 225° | 7,9 mm | – | – |
| 14:44 | 2,3 °C | 90 % | 994,9 hPa | 0,0 km/h | 0,0 km/h | 225° | 7,9 mm | – | – |
| 14:39 | 2,3 °C | 90 % | 994,9 hPa | 0,2 km/h | 1,8 km/h | 225° | 7,9 mm | – | – |
| 14:34 | 2,3 °C | 90 % | 994,9 hPa | 0,8 km/h | 2,4 km/h | 225° | 7,9 mm | – | – |
| 14:29 | 2,4 °C | 90 % | 994,9 hPa | 0,5 km/h | 2,1 km/h | 241° | 7,9 mm | – | – |
| 14:24 | 2,4 °C | 90 % | 994,9 hPa | 0,2 km/h | 2,1 km/h | 248° | 7,9 mm | – | – |
| 14:19 | 2,5 °C | 89 % | 994,9 hPa | 0,0 km/h | 0,0 km/h | 248° | 7,9 mm | – | – |
| 14:14 | 2,5 °C | 89 % | 994,9 hPa | 0,5 km/h | 2,7 km/h | 248° | 7,9 mm | – | – |
| 14:09 | 2,5 °C | 90 % | 994,9 hPa | 0,4 km/h | 2,4 km/h | 248° | 7,9 mm | – | – |
| 14:04 | 2,5 °C | 89 % | 994,9 hPa | 0,4 km/h | 2,1 km/h | 248° | 7,9 mm | – | – |
| 13:59 | 2,5 °C | 89 % | 994,9 hPa | 1,4 km/h | 3,5 km/h | 225° | 7,9 mm | – | – |
| 13:54 | 2,6 °C | 88 % | 994,9 hPa | 2,3 km/h | 5,0 km/h | 173° | 7,9 mm | – | – |
| 13:49 | 2,7 °C | 89 % | 994,9 hPa | 0,9 km/h | 2,4 km/h | 214° | 7,9 mm | – | – |
| 13:44 | 2,7 °C | 88 % | 995,9 hPa | 2,2 km/h | 3,9 km/h | 206° | 7,9 mm | – | – |
| 13:39 | 2,8 °C | 89 % | 995,9 hPa | 0,5 km/h | 2,4 km/h | 270° | 7,4 mm | – | – |
| 13:34 | 2,8 °C | 88 % | 995,9 hPa | 1,7 km/h | 3,9 km/h | 198° | 7,4 mm | – | – |
| 13:29 | 2,8 °C | 89 % | 995,9 hPa | 0,1 km/h | 1,8 km/h | 315° | 7,4 mm | – | – |
| 13:24 | 2,8 °C | 88 % | 995,9 hPa | 1,2 km/h | 3,9 km/h | 243° | 7,4 mm | – | – |
| 13:19 | 2,8 °C | 88 % | 995,9 hPa | 1,2 km/h | 3,5 km/h | 234° | 7,4 mm | – | – |
| 13:14 | 2,7 °C | 88 % | 995,9 hPa | 1,5 km/h | 6,4 km/h | 253° | 7,4 mm | – | – |
| 13:09 | 2,7 °C | 89 % | 995,9 hPa | 1,2 km/h | 4,2 km/h | 171° | 7,4 mm | – | – |
| 13:04 | 2,7 °C | 89 % | 995,9 hPa | 1,9 km/h | 4,2 km/h | 229° | 7,4 mm | – | – |
| 12:59 | 2,7 °C | 89 % | 995,9 hPa | 1,7 km/h | 4,2 km/h | 219° | 7,4 mm | – | – |
| 12:54 | 2,7 °C | 89 % | 995,9 hPa | 1,8 km/h | 5,6 km/h | 259° | 7,1 mm | – | – |
| 12:49 | 2,7 °C | 90 % | 995,9 hPa | 2,2 km/h | 3,2 km/h | 255° | 7,1 mm | – | – |
| 12:44 | 2,7 °C | 90 % | 995,9 hPa | 1,2 km/h | 3,9 km/h | 276° | 7,1 mm | – | – |
| 12:39 | 2,7 °C | 89 % | 995,9 hPa | 2,8 km/h | 6,8 km/h | 226° | 7,1 mm | – | – |
| 12:34 | 2,7 °C | 90 % | 995,9 hPa | 1,6 km/h | 4,2 km/h | 259° | 7,1 mm | – | – |
| 12:29 | 2,7 °C | 90 % | 997,0 hPa | 1,6 km/h | 4,2 km/h | 261° | 7,1 mm | – | – |
| 12:24 | 2,7 °C | 90 % | 997,0 hPa | 2,2 km/h | 7,9 km/h | 257° | 7,1 mm | – | – |
| 12:19 | 2,7 °C | 91 % | 997,0 hPa | 2,0 km/h | 4,2 km/h | 256° | 6,6 mm | – | – |
| 12:14 | 2,6 °C | 91 % | 997,0 hPa | 2,2 km/h | 6,8 km/h | 248° | 6,6 mm | – | – |
| 12:09 | 2,5 °C | 90 % | 997,0 hPa | 1,9 km/h | 3,9 km/h | 270° | 6,6 mm | – | – |
| 12:04 | 2,5 °C | 91 % | 997,0 hPa | 1,5 km/h | 3,9 km/h | 274° | 6,6 mm | – | – |
| 11:59 | 2,5 °C | 91 % | 997,0 hPa | 2,6 km/h | 5,6 km/h | 244° | 6,6 mm | – | – |
| 11:54 | 2,5 °C | 91 % | 997,0 hPa | 3,5 km/h | 8,5 km/h | 242° | 6,4 mm | – | – |
| 11:49 | 2,5 °C | 91 % | 997,0 hPa | 1,3 km/h | 5,3 km/h | 265° | 6,4 mm | – | – |
| 11:44 | 2,5 °C | 91 % | 997,0 hPa | 1,3 km/h | 3,5 km/h | 238° | 6,4 mm | – | – |
| 11:39 | 2,4 °C | 91 % | 997,0 hPa | 0,4 km/h | 3,2 km/h | 248° | 6,4 mm | – | – |
| 11:34 | 2,4 °C | 92 % | 997,0 hPa | 2,1 km/h | 5,6 km/h | 292° | 6,4 mm | – | – |
| 11:29 | 2,4 °C | 92 % | 997,0 hPa | 2,9 km/h | 5,6 km/h | 240° | 6,4 mm | – | – |
| 11:24 | 2,5 °C | 91 % | 997,0 hPa | 3,0 km/h | 7,9 km/h | 263° | 5,8 mm | – | – |
| 11:19 | 2,5 °C | 92 % | 997,0 hPa | 1,1 km/h | 3,9 km/h | 283° | 5,8 mm | – | – |
| 11:14 | 2,5 °C | 92 % | 998,0 hPa | 1,4 km/h | 4,2 km/h | 259° | 5,8 mm | – | – |
| 11:09 | 2,5 °C | 92 % | 998,0 hPa | 1,8 km/h | 7,4 km/h | 229° | 5,8 mm | – | – |
| 11:04 | 2,3 °C | 92 % | 998,0 hPa | 1,3 km/h | 2,7 km/h | 240° | 5,8 mm | – | – |
| 10:59 | 2,1 °C | 92 % | 998,0 hPa | 1,5 km/h | 3,9 km/h | 238° | 5,6 mm | – | – |
| 10:54 | 2,0 °C | 93 % | 998,0 hPa | 2,4 km/h | 7,4 km/h | 264° | 5,6 mm | – | – |
| 10:49 | 2,0 °C | 93 % | 998,0 hPa | 2,0 km/h | 3,9 km/h | 220° | 5,6 mm | – | – |
| 10:44 | 1,8 °C | 93 % | 998,0 hPa | 1,9 km/h | 3,5 km/h | 257° | 5,6 mm | – | – |
| 10:39 | 1,7 °C | 93 % | 998,0 hPa | 2,4 km/h | 3,9 km/h | 270° | 5,6 mm | – | – |
| 10:34 | 1,6 °C | 94 % | 998,0 hPa | 1,6 km/h | 3,9 km/h | 289° | 5,1 mm | – | – |
| 10:29 | 1,5 °C | 94 % | 998,0 hPa | 1,5 km/h | 4,7 km/h | 266° | 5,1 mm | – | – |
| 10:24 | 1,5 °C | 94 % | 998,0 hPa | 1,6 km/h | 4,2 km/h | 270° | 5,1 mm | – | – |
| 10:19 | 1,4 °C | 94 % | 998,0 hPa | 1,2 km/h | 4,7 km/h | 259° | 5,1 mm | – | – |
| 10:14 | 1,3 °C | 94 % | 998,0 hPa | 2,4 km/h | 3,9 km/h | 270° | 5,1 mm | – | – |
| 10:09 | 1,2 °C | 94 % | 998,0 hPa | 2,0 km/h | 5,3 km/h | 269° | 5,1 mm | – | – |
| 10:04 | 1,2 °C | 94 % | 998,0 hPa | 1,6 km/h | 3,2 km/h | 284° | 4,6 mm | – | – |
| 09:59 | 1,1 °C | 94 % | 998,0 hPa | 2,1 km/h | 6,8 km/h | 269° | 4,6 mm | – | – |
| 09:54 | 1,1 °C | 94 % | 998,0 hPa | 2,9 km/h | 6,1 km/h | 256° | 4,6 mm | – | – |
| 09:49 | 1,0 °C | 94 % | 998,0 hPa | 3,1 km/h | 7,9 km/h | 242° | 4,6 mm | – | – |
| 09:44 | 1,0 °C | 94 % | 999,0 hPa | 2,2 km/h | 4,2 km/h | 267° | 4,6 mm | – | – |
| 09:39 | 1,0 °C | 94 % | 999,0 hPa | 1,5 km/h | 3,9 km/h | 240° | 4,3 mm | – | – |
| 09:34 | 1,0 °C | 94 % | 999,0 hPa | 1,7 km/h | 6,8 km/h | 262° | 4,3 mm | – | – |
| 09:29 | 1,1 °C | 94 % | 999,0 hPa | 2,0 km/h | 8,5 km/h | 242° | 4,3 mm | – | – |
| 09:24 | 1,1 °C | 94 % | 999,0 hPa | 1,4 km/h | 3,2 km/h | 284° | 4,3 mm | – | – |
| 09:19 | 1,1 °C | 94 % | 999,0 hPa | 2,1 km/h | 5,6 km/h | 280° | 4,3 mm | – | – |
| 09:14 | 1,1 °C | 94 % | 999,0 hPa | 2,3 km/h | 6,4 km/h | 274° | 4,3 mm | – | – |
| 09:09 | 1,1 °C | 95 % | 999,0 hPa | 2,7 km/h | 6,8 km/h | 300° | 3,8 mm | – | – |
| 09:04 | 1,1 °C | 95 % | 999,0 hPa | 2,1 km/h | 6,4 km/h | 245° | 3,8 mm | – | – |
| 08:59 | 1,0 °C | 95 % | 999,0 hPa | 2,6 km/h | 8,5 km/h | 274° | 3,8 mm | – | – |
| 08:54 | 1,0 °C | 95 % | 999,0 hPa | 1,5 km/h | 5,3 km/h | 269° | 3,8 mm | – | – |
| 08:49 | 1,0 °C | 95 % | 999,0 hPa | 2,0 km/h | 8,5 km/h | 271° | 3,8 mm | – | – |
| 08:44 | 1,0 °C | 95 % | 999,0 hPa | 2,8 km/h | 8,5 km/h | 225° | 3,8 mm | – | – |
| 08:39 | 1,0 °C | 95 % | 999,0 hPa | 2,8 km/h | 8,9 km/h | 254° | 3,6 mm | – | – |
| 08:34 | 1,0 °C | 95 % | 999,0 hPa | 2,6 km/h | 9,3 km/h | 259° | 3,6 mm | – | – |
| 08:29 | 0,9 °C | 95 % | 999,0 hPa | 2,0 km/h | 7,9 km/h | 289° | 3,6 mm | – | – |
| 08:24 | 0,9 °C | 95 % | 999,0 hPa | 2,3 km/h | 5,6 km/h | 250° | 3,6 mm | – | – |
| 08:19 | 0,9 °C | 95 % | 999,0 hPa | 3,5 km/h | 8,5 km/h | 244° | 3,6 mm | – | – |
| 08:14 | 0,9 °C | 95 % | 999,0 hPa | 2,9 km/h | 7,9 km/h | 222° | 3,6 mm | – | – |
| 08:09 | 0,9 °C | 95 % | 999,0 hPa | 2,9 km/h | 8,2 km/h | 264° | 3,1 mm | – | – |
| 08:04 | 0,8 °C | 95 % | 999,0 hPa | 1,5 km/h | 5,3 km/h | 277° | 3,1 mm | – | – |
| 07:59 | 0,8 °C | 95 % | 999,0 hPa | 3,1 km/h | 8,5 km/h | 224° | 3,1 mm | – | – |
| 07:54 | 0,8 °C | 95 % | 999,0 hPa | 3,6 km/h | 7,4 km/h | 247° | 3,1 mm | – | – |
| 07:49 | 0,8 °C | 95 % | 999,0 hPa | 3,1 km/h | 6,8 km/h | 268° | 3,1 mm | – | – |
| 07:44 | 0,8 °C | 95 % | 999,0 hPa | 2,6 km/h | 7,9 km/h | 249° | 3,1 mm | – | – |
| 07:39 | 0,8 °C | 95 % | 999,0 hPa | 2,7 km/h | 7,9 km/h | 219° | 3,1 mm | – | – |
| 07:34 | 0,7 °C | 95 % | 999,0 hPa | 2,7 km/h | 5,6 km/h | 245° | 2,8 mm | – | – |
| 07:29 | 0,7 °C | 95 % | 999,0 hPa | 2,2 km/h | 5,3 km/h | 236° | 2,8 mm | – | – |
| 07:24 | 0,7 °C | 95 % | 999,0 hPa | 2,5 km/h | 6,4 km/h | 226° | 2,8 mm | – | – |
| 07:19 | 0,7 °C | 95 % | 999,0 hPa | 1,4 km/h | 3,5 km/h | 228° | 2,8 mm | – | – |
| 07:14 | 0,7 °C | 95 % | 999,0 hPa | 2,0 km/h | 3,9 km/h | 229° | 2,8 mm | – | – |
| 07:09 | 0,7 °C | 95 % | 999,0 hPa | 1,6 km/h | 4,2 km/h | 261° | 2,8 mm | – | – |
| 07:04 | 0,7 °C | 95 % | 999,0 hPa | 2,3 km/h | 6,8 km/h | 266° | 2,8 mm | – | – |
| 06:59 | 0,7 °C | 95 % | 999,0 hPa | 2,4 km/h | 4,7 km/h | 231° | 2,8 mm | – | – |
| 06:54 | 0,7 °C | 95 % | 999,0 hPa | 1,5 km/h | 3,9 km/h | 231° | 2,8 mm | – | – |
| 06:49 | 0,7 °C | 95 % | 999,0 hPa | 1,2 km/h | 6,4 km/h | 249° | 2,3 mm | – | – |
| 06:44 | 0,7 °C | 95 % | 999,0 hPa | 2,1 km/h | 7,4 km/h | 252° | 2,3 mm | – | – |
| 06:39 | 0,6 °C | 95 % | 999,0 hPa | 1,3 km/h | 5,3 km/h | 260° | 2,3 mm | – | – |
| 06:34 | 0,6 °C | 95 % | 999,0 hPa | 1,6 km/h | 4,2 km/h | 258° | 2,3 mm | – | – |
| 06:29 | 0,6 °C | 95 % | 999,0 hPa | 2,2 km/h | 5,6 km/h | 263° | 2,3 mm | – | – |
| 06:24 | 0,6 °C | 95 % | 999,0 hPa | 1,0 km/h | 3,5 km/h | 235° | 2,3 mm | – | – |
| 06:19 | 0,6 °C | 95 % | 999,0 hPa | 2,1 km/h | 6,4 km/h | 217° | 2,3 mm | – | – |
| 06:14 | 0,6 °C | 95 % | 1.000,0 hPa | 1,4 km/h | 3,9 km/h | 257° | 2,3 mm | – | – |
| 06:09 | 0,5 °C | 95 % | 1.000,0 hPa | 2,0 km/h | 3,9 km/h | 278° | 2,3 mm | – | – |
| 06:04 | 0,5 °C | 95 % | 1.000,0 hPa | 1,4 km/h | 3,9 km/h | 211° | 2,3 mm | – | – |
| 05:59 | 0,5 °C | 95 % | 999,0 hPa | 1,2 km/h | 3,2 km/h | 270° | 2,3 mm | – | – |
| 05:54 | 0,5 °C | 95 % | 999,0 hPa | 0,9 km/h | 3,5 km/h | 281° | 2,3 mm | – | – |
| 05:49 | 0,5 °C | 95 % | 999,0 hPa | 1,2 km/h | 3,5 km/h | 257° | 2,3 mm | – | – |
| 05:44 | 0,5 °C | 95 % | 1.000,0 hPa | 1,4 km/h | 5,6 km/h | 256° | 2,3 mm | – | – |
| 05:39 | 0,5 °C | 95 % | 1.000,0 hPa | 1,6 km/h | 3,5 km/h | 248° | 2,3 mm | – | – |
| 05:34 | 0,5 °C | 95 % | 1.000,0 hPa | 1,3 km/h | 6,4 km/h | 258° | 1,8 mm | – | – |
| 05:29 | 0,5 °C | 95 % | 1.000,0 hPa | 0,3 km/h | 2,7 km/h | 270° | 1,8 mm | – | – |
| 05:24 | 0,5 °C | 95 % | 1.000,0 hPa | 0,9 km/h | 3,2 km/h | 270° | 1,8 mm | – | – |
| 05:19 | 0,5 °C | 95 % | 1.000,0 hPa | 1,0 km/h | 2,4 km/h | 270° | 1,8 mm | – | – |
| 05:14 | 0,5 °C | 95 % | 1.000,0 hPa | 0,3 km/h | 2,1 km/h | 270° | 1,8 mm | – | – |
| 05:09 | 0,5 °C | 95 % | 1.000,0 hPa | 0,1 km/h | 1,8 km/h | 270° | 1,8 mm | – | – |
| 05:04 | 0,5 °C | 95 % | 1.000,0 hPa | 0,6 km/h | 2,7 km/h | 270° | 1,8 mm | – | – |
| 04:59 | 0,4 °C | 95 % | 1.000,0 hPa | 1,3 km/h | 6,8 km/h | 251° | 1,8 mm | – | – |
| 04:54 | 0,4 °C | 95 % | 1.000,0 hPa | 1,4 km/h | 2,7 km/h | 270° | 1,8 mm | – | – |
| 04:49 | 0,4 °C | 95 % | 1.000,0 hPa | 0,9 km/h | 2,7 km/h | 253° | 1,8 mm | – | – |
| 04:44 | 0,4 °C | 95 % | 1.000,0 hPa | 0,2 km/h | 2,1 km/h | 225° | 1,8 mm | – | – |
| 04:39 | 0,4 °C | 95 % | 1.000,0 hPa | 0,2 km/h | 1,8 km/h | 225° | 1,8 mm | – | – |
| 04:34 | 0,4 °C | 95 % | 1.000,0 hPa | 0,1 km/h | 1,8 km/h | 225° | 1,8 mm | – | – |
| 04:29 | 0,4 °C | 95 % | 1.000,0 hPa | 0,1 km/h | 1,8 km/h | 225° | 1,8 mm | – | – |
| 04:24 | 0,4 °C | 95 % | 1.000,0 hPa | 0,0 km/h | 0,0 km/h | 225° | 1,8 mm | – | – |
| 04:19 | 0,4 °C | 95 % | 1.000,0 hPa | 0,2 km/h | 1,8 km/h | 225° | 1,8 mm | – | – |
| 04:14 | 0,4 °C | 95 % | 1.000,0 hPa | 0,3 km/h | 2,1 km/h | 207° | 1,8 mm | – | – |
| 04:09 | 0,4 °C | 95 % | 1.000,0 hPa | 0,2 km/h | 2,1 km/h | 248° | 1,8 mm | – | – |
| 04:04 | 0,4 °C | 95 % | 1.000,0 hPa | 0,3 km/h | 2,7 km/h | 248° | 1,8 mm | – | – |
| 03:59 | 0,4 °C | 95 % | 1.001,0 hPa | 0,5 km/h | 3,2 km/h | 248° | 1,8 mm | – | – |
| 03:54 | 0,4 °C | 95 % | 1.001,0 hPa | 0,0 km/h | 0,0 km/h | 248° | 1,8 mm | – | – |
| 03:49 | 0,4 °C | 95 % | 1.001,0 hPa | 0,0 km/h | 0,0 km/h | 248° | 1,8 mm | – | – |
| 03:44 | 0,4 °C | 95 % | 1.001,0 hPa | 0,1 km/h | 1,8 km/h | 248° | 1,8 mm | – | – |
| 03:39 | 0,4 °C | 95 % | 1.001,0 hPa | 0,0 km/h | 0,0 km/h | 248° | 1,8 mm | – | – |
| 03:34 | 0,4 °C | 95 % | 1.001,0 hPa | 0,1 km/h | 1,8 km/h | 248° | 1,8 mm | – | – |
| 03:29 | 0,4 °C | 95 % | 1.001,0 hPa | 0,1 km/h | 1,8 km/h | 248° | 1,8 mm | – | – |
| 03:24 | 0,4 °C | 95 % | 1.001,0 hPa | 0,2 km/h | 2,4 km/h | 248° | 1,8 mm | – | – |
| 03:19 | 0,4 °C | 95 % | 1.001,0 hPa | 0,1 km/h | 1,8 km/h | 248° | 1,8 mm | – | – |
| 03:14 | 0,4 °C | 95 % | 1.001,0 hPa | 0,7 km/h | 2,4 km/h | 248° | 1,8 mm | – | – |
| 03:09 | 0,4 °C | 95 % | 1.001,0 hPa | 1,5 km/h | 3,9 km/h | 248° | 1,8 mm | – | – |
| 03:04 | 0,5 °C | 95 % | 1.001,0 hPa | 1,3 km/h | 3,5 km/h | 248° | 1,8 mm | – | – |
| 02:59 | 0,5 °C | 95 % | 1.001,0 hPa | 1,6 km/h | 4,2 km/h | 248° | 1,8 mm | – | – |
| 02:54 | 0,5 °C | 95 % | 1.001,0 hPa | 1,4 km/h | 3,9 km/h | 258° | 1,8 mm | – | – |
| 02:49 | 0,5 °C | 95 % | 1.001,0 hPa | 0,9 km/h | 3,2 km/h | 283° | 1,8 mm | – | – |
| 02:44 | 0,5 °C | 95 % | 1.001,0 hPa | 1,0 km/h | 2,7 km/h | 270° | 1,8 mm | – | – |
| 02:39 | 0,6 °C | 95 % | 1.001,0 hPa | 2,6 km/h | 6,8 km/h | 249° | 1,8 mm | – | – |
| 02:34 | 0,6 °C | 95 % | 1.001,0 hPa | 1,2 km/h | 5,3 km/h | 248° | 1,8 mm | – | – |
| 02:29 | 0,6 °C | 95 % | 1.001,0 hPa | 1,0 km/h | 3,2 km/h | 231° | 1,5 mm | – | – |
| 02:24 | 0,7 °C | 95 % | 1.001,0 hPa | 1,9 km/h | 5,6 km/h | 237° | 1,5 mm | – | – |
| 02:19 | 0,7 °C | 95 % | 1.001,0 hPa | 1,7 km/h | 3,9 km/h | 262° | 1,5 mm | – | – |
| 02:14 | 0,7 °C | 95 % | 1.001,0 hPa | 2,1 km/h | 6,8 km/h | 260° | 1,5 mm | – | – |
| 02:09 | 0,7 °C | 95 % | 1.001,0 hPa | 0,9 km/h | 4,2 km/h | 196° | 1,5 mm | – | – |
| 02:04 | 0,7 °C | 95 % | 1.001,0 hPa | 1,7 km/h | 5,6 km/h | 232° | 1,5 mm | – | – |
| 01:59 | 0,7 °C | 95 % | 1.001,0 hPa | 2,0 km/h | 5,6 km/h | 251° | 1,5 mm | – | – |
| 01:54 | 0,7 °C | 95 % | 1.001,0 hPa | 2,1 km/h | 3,9 km/h | 254° | 1,5 mm | – | – |
| 01:49 | 0,8 °C | 95 % | 1.001,0 hPa | 2,1 km/h | 8,9 km/h | 269° | 1,5 mm | – | – |
| 01:44 | 0,8 °C | 95 % | 1.001,0 hPa | 1,4 km/h | 3,9 km/h | 274° | 1,0 mm | – | – |
| 01:39 | 0,8 °C | 95 % | 1.001,0 hPa | 1,9 km/h | 6,4 km/h | 271° | 1,0 mm | – | – |
| 01:34 | 0,8 °C | 95 % | 1.001,0 hPa | 2,3 km/h | 4,7 km/h | 259° | 1,0 mm | – | – |
| 01:29 | 0,8 °C | 95 % | 1.001,0 hPa | 2,1 km/h | 4,7 km/h | 272° | 1,0 mm | – | – |
| 01:24 | 0,8 °C | 95 % | 1.001,0 hPa | 2,2 km/h | 5,3 km/h | 284° | 1,0 mm | – | – |
| 01:19 | 0,9 °C | 95 % | 1.001,0 hPa | 2,2 km/h | 5,3 km/h | 278° | 1,0 mm | – | – |
| 01:14 | 0,9 °C | 95 % | 1.002,0 hPa | 1,6 km/h | 5,0 km/h | 306° | 1,0 mm | – | – |
| 01:09 | 0,9 °C | 95 % | 1.002,0 hPa | 1,5 km/h | 3,9 km/h | 302° | 1,0 mm | – | – |
| 01:04 | 0,9 °C | 95 % | 1.002,0 hPa | 1,3 km/h | 3,2 km/h | 305° | 0,8 mm | – | – |
| 00:59 | 1,0 °C | 95 % | 1.002,0 hPa | 2,4 km/h | 4,7 km/h | 283° | 0,8 mm | – | – |
| 00:54 | 0,9 °C | 95 % | 1.002,0 hPa | 2,2 km/h | 5,3 km/h | 283° | 0,8 mm | – | – |
| 00:49 | 0,9 °C | 95 % | 1.002,0 hPa | 2,3 km/h | 3,9 km/h | 288° | 0,8 mm | – | – |
| 00:44 | 1,0 °C | 95 % | 1.002,0 hPa | 1,5 km/h | 5,3 km/h | 244° | 0,8 mm | – | – |
| 00:39 | 1,0 °C | 95 % | 1.002,0 hPa | 1,8 km/h | 6,1 km/h | 281° | 0,8 mm | – | – |
| 00:34 | 1,0 °C | 95 % | 1.002,0 hPa | 1,6 km/h | 5,6 km/h | 261° | 0,8 mm | – | – |
| 00:29 | 1,0 °C | 95 % | 1.002,0 hPa | 2,3 km/h | 5,0 km/h | 247° | 0,8 mm | – | – |
| 00:24 | 1,0 °C | 95 % | 1.002,0 hPa | 1,9 km/h | 6,4 km/h | 263° | 0,3 mm | – | – |
| 00:19 | 1,0 °C | 95 % | 1.002,0 hPa | 1,6 km/h | 5,3 km/h | 302° | 0,3 mm | – | – |
| 00:14 | 1,1 °C | 95 % | 1.002,0 hPa | 1,9 km/h | 6,8 km/h | 257° | 0,3 mm | – | – |
| 00:09 | 1,1 °C | 95 % | 1.002,0 hPa | 2,0 km/h | 3,9 km/h | 258° | 0,3 mm | – | – |
| 00:04 | 1,1 °C | 95 % | 1.002,0 hPa | 2,2 km/h | 6,4 km/h | 275° | 0,3 mm | – | – |